TimeCDT,TemperatureF,Dew PointF,Humidity,Sea Level PressureIn,VisibilityMPH,Wind Direction,Wind SpeedMPH,Gust SpeedMPH,PrecipitationIn,Events,Conditions,WindDirDegrees,DateUTC
12:53 AM,35.1,33.1,92,29.76,4.0,East,9.2,-,0.00,,Overcast,100,2013-03-18 05:53:00
1:40 AM,35.6,33.8,93,29.74,2.5,East,4.6,-,N/A,,Overcast,90,2013-03-18 06:40:00
1:53 AM,35.1,34.0,96,29.76,3.0,ENE,5.8,-,N/A,,Overcast,70,2013-03-18 06:53:00
2:29 AM,35.6,33.8,93,29.76,3.0,Calm,Calm,-,N/A,,Overcast,0,2013-03-18 07:29:00
2:41 AM,35.6,33.8,93,29.76,2.5,Calm,Calm,-,N/A,,Overcast,0,2013-03-18 07:41:00
2:53 AM,35.1,34.0,96,29.78,2.5,North,3.5,-,N/A,,Overcast,10,2013-03-18 07:53:00
3:53 AM,35.1,34.0,96,29.76,2.5,NNE,4.6,-,N/A,,Overcast,30,2013-03-18 08:53:00
4:53 AM,35.1,34.0,96,29.76,2.0,Calm,Calm,-,N/A,,Overcast,0,2013-03-18 09:53:00
5:04 AM,35.6,33.8,93,29.75,1.8,NW,3.5,-,N/A,,Overcast,320,2013-03-18 10:04:00
5:53 AM,35.1,34.0,96,29.77,1.5,WNW,3.5,-,N/A,,Overcast,300,2013-03-18 10:53:00
6:28 AM,35.6,33.8,93,29.76,1.2,WNW,4.6,-,N/A,,Overcast,300,2013-03-18 11:28:00
6:39 AM,35.6,33.8,93,29.77,1.8,West,6.9,-,N/A,,Overcast,280,2013-03-18 11:39:00
6:53 AM,35.1,34.0,96,29.79,1.8,WNW,5.8,-,N/A,,Overcast,300,2013-03-18 11:53:00
7:00 AM,35.6,33.8,93,29.76,2.0,NW,4.6,-,N/A,,Overcast,310,2013-03-18 12:00:00
7:10 AM,35.6,33.8,93,29.77,1.8,WNW,5.8,-,N/A,,Overcast,290,2013-03-18 12:10:00
7:19 AM,35.6,33.8,93,29.78,2.0,West,6.9,-,N/A,,Overcast,280,2013-03-18 12:19:00
7:37 AM,35.6,33.8,93,29.78,1.2,West,9.2,-,N/A,,Overcast,280,2013-03-18 12:37:00
7:48 AM,35.6,33.8,93,29.78,1.0,WNW,6.9,-,N/A,,Overcast,290,2013-03-18 12:48:00
7:53 AM,36.0,34.0,93,29.81,1.2,West,9.2,-,N/A,,Overcast,270,2013-03-18 12:53:00
8:02 AM,35.6,33.8,93,29.80,1.8,West,11.5,-,N/A,,Overcast,280,2013-03-18 13:02:00
8:17 AM,35.6,33.8,93,29.80,3.0,WNW,12.7,-,N/A,,Overcast,290,2013-03-18 13:17:00
8:53 AM,36.0,34.0,93,29.83,6.0,WNW,17.3,24.2,0.00,,Overcast,290,2013-03-18 13:53:00
9:26 AM,37.4,33.8,87,29.83,9.0,WNW,11.5,-,N/A,,Overcast,290,2013-03-18 14:26:00
9:53 AM,37.9,35.1,89,29.86,9.0,West,13.8,-,N/A,,Overcast,280,2013-03-18 14:53:00
10:06 AM,37.4,35.6,93,29.85,10.0,WNW,12.7,-,N/A,,Overcast,290,2013-03-18 15:06:00
10:53 AM,39.0,35.1,86,29.87,9.0,WNW,13.8,-,N/A,,Overcast,290,2013-03-18 15:53:00
11:38 AM,41.0,35.6,81,29.86,10.0,WNW,13.8,20.7,N/A,,Overcast,300,2013-03-18 16:38:00
11:53 AM,43.0,37.0,80,29.88,10.0,NW,13.8,23.0,N/A,,Overcast,310,2013-03-18 16:53:00
12:53 PM,46.9,36.0,66,29.89,10.0,NW,15.0,21.9,N/A,,Mostly Cloudy,320,2013-03-18 17:53:00
1:53 PM,51.1,32.0,48,29.89,10.0,WNW,23.0,31.1,N/A,,Partly Cloudy,300,2013-03-18 18:53:00
2:53 PM,51.1,32.0,48,29.88,10.0,NW,17.3,-,N/A,,Partly Cloudy,320,2013-03-18 19:53:00
3:53 PM,52.0,30.0,43,29.88,10.0,NW,18.4,26.5,N/A,,Clear,310,2013-03-18 20:53:00
4:53 PM,52.0,26.1,37,29.90,10.0,NW,20.7,32.2,N/A,,Partly Cloudy,310,2013-03-18 21:53:00
5:53 PM,51.1,26.1,38,29.91,10.0,WNW,15.0,27.6,N/A,,Clear,290,2013-03-18 22:53:00
6:53 PM,48.9,27.0,43,29.93,10.0,NW,11.5,-,N/A,,Clear,320,2013-03-18 23:53:00
7:53 PM,46.0,26.1,46,29.96,10.0,NW,10.4,-,N/A,,Clear,320,2013-03-19 00:53:00
8:53 PM,43.0,27.0,53,30.00,10.0,NNW,12.7,-,N/A,,Clear,340,2013-03-19 01:53:00
9:53 PM,39.0,21.9,50,30.06,10.0,NNW,12.7,-,N/A,,Clear,340,2013-03-19 02:53:00
10:53 PM,36.0,19.9,52,30.08,10.0,NNW,9.2,-,N/A,,Clear,340,2013-03-19 03:53:00
11:53 PM,35.1,19.0,52,30.09,10.0,NNW,6.9,-,N/A,,Clear,330,2013-03-19 04:53:00